TeikyoSat 4
1 49396U 21102B   25296.65245808  .00003448  00000-0  22579-3 0  9996
2 49396  97.3963 330.1249 0013158  33.1680 327.0371 15.08301470217058
Z-Sat
1 49399U 21102E   25296.68205507  .00005772  00000-0  30504-3 0  9993
2 49399  97.3651 334.1350 0017329 357.5770   2.5376 15.15740832217584
KOSEN 1
1 49402U 21102H   25296.37592750  .00010342  00000-0  44869-3 0  9991
2 49402  97.3547 338.3355 0013990 328.8831  31.1575 15.22441176217938
HO-113
1 50466U 21131B   25296.65802300  .00000971  00000-0  31562-3 0  9994
2 50466  98.5076  25.3319 0005258  90.8458 269.3333 14.41008018201048
SNUGLITE 2
1 52899U 22065F   25296.62646814  .00001936  00000-0  38159-3 0  9997
2 52899  98.1889  77.4627 0008342  52.6190 307.5770 14.63623595176389
UmKA 1 (RS40S)
1 57172U 23091G   25296.69949013  .00009075  00000-0  45920-3 0  9996
2 57172  97.5415 351.3971 0012940 218.0222 142.0099 15.17177386128100
CubeBel-2 (EU11S)
1 57175U 23091K   25296.59463910  .00014000  00000-0  60943-3 0  9991
2 57175  97.5412 353.3621 0010474 221.9556 138.0878 15.22297536128226
ENSO
1 58470U 23185J   25296.89685249  .00484490  92226-4  15344-2 0  9991
2 58470  97.3514  18.4551 0006611 271.7957  88.2559 15.91194991106374
SONATE-2
1 59112U 24043Q   25295.36302710  .00031917  00000-0  76014-3 0  9998
2 59112  97.5303  69.8548 0009566 354.8589   5.2557 15.41498171 91055
MO-122
1 60209U 24125G   25296.56722488  .00032216  00000-0  74536-3 0  9999
2 60209  97.2592 147.0351 0016806  13.3539 346.8150 15.42263520 72869
GRBBeta
1 60237U 24128C   25296.56848355  .00005001  00000-0  36224-3 0  9999
2 60237  61.9911 324.9731 0057040  85.9163 274.8445 15.04040566 70646
Curium One
1 60242U 24128H   25296.54145713  .00009577  00000-0  61706-3 0  9996
2 60242  61.9804 321.0518 0056742  82.4096 278.3437 15.07577532 70718
ROBUSTA-3A
1 60243U 24128J   25296.45818395  .00008986  00000-0  58948-3 0  9997
2 60243  61.9878 322.6677 0056631  79.8796 280.8679 15.06983113 70684
CatSat
1 60246U 24125J   25296.64797691  .00034733  00000-0  96657-3 0  9991
2 60246  97.2406 144.7136 0036508 330.6751  29.2444 15.36061096 70820
HYPERVIEW-1G (RS66S)
1 61772U 24199AP  25296.68517271  .00039751  00000-0  90277-3 0  9992
2 61772  97.3275 165.6683 0013832  66.2015 294.0681 15.42825337 97882
AO-123
1 61781U 24199AY  25296.68073806  .00011277  00000-0  38229-3 0  9995
2 61781  97.3306 162.7137 0017043  75.9338 284.3796 15.30570348 97685
ZIMSAT 2
1 61783U 24199BA  25296.68378514  .00107929  00000-0  15199-2 0  9991
2 61783  97.3205 167.8553 0012175  61.9090 298.3394 15.56188835101188
HADES-R (SO-124)
1 62690U 25009CK  25296.17466128  .00106717  00000-0  23105-2 0  9993
2 62690  97.3972  17.4571 0002333 296.9465  63.1545 15.44050581 42945
HYDRA-T
1 62692U 25009CM  25296.18918735  .00109587  00000-0  23162-2 0  9993
2 62692  97.3968  17.5894 0002459 286.4136  73.6842 15.44752163 42951
JINJUSat 1B
1 63210U 25052A   25296.67298913  .00019212  00000-0  78417-3 0  9990
2 63210  97.4220 189.2204 0003334 165.5378 194.5955 15.24449235 33959
NUSHSAT 1
1 63211U 25052B   25296.43455471  .00023030  00000-0  91953-3 0  9992
2 63211  97.4206 189.0497 0003035 168.6461 191.4846 15.25151999 33921
TEVEL2-4
1 63213U 25052D   25296.67858076  .00020114  00000-0  81594-3 0  9998
2 63213  97.4122 188.9419 0001723 172.8284 187.2979 15.24649310 33955
TEVEL2-5
1 63214U 25052E   25296.68202101  .00019654  00000-0  79862-3 0  9994
2 63214  97.4123 188.9381 0001738 173.5300 186.5960 15.24597826 33954
TEVEL2-6
1 63215U 25052F   25296.68778088  .00019723  00000-0  80245-3 0  9991
2 63215  97.4125 188.9342 0001700 174.0204 186.1054 15.24554453 33951
TEVEL2-1
1 63217U 25052H   25296.65489676  .00020305  00000-0  83303-3 0  9998
2 63217  97.4100 188.7529 0001172 205.0038 155.1143 15.24268338 33942
TEVEL2-3
1 63218U 25052J   25296.65467348  .00020398  00000-0  83646-3 0  9993
2 63218  97.4101 188.7561 0001155 205.9792 154.1388 15.24282638 33946
TEVEL2-2
1 63219U 25052K   25296.65567275  .00020438  00000-0  83848-3 0  9993
2 63219  97.4100 188.7537 0001159 205.2538 154.8643 15.24267020 33943
TEVEL2-9
1 63237U 25052AD  25296.24308492  .00020271  00000-0  86618-3 0  9995
2 63237  97.4167 188.1187 0004982 259.7902 100.2773 15.22882195 33850
TEVEL2-7
1 63238U 25052AE  25296.64688773  .00019389  00000-0  83120-3 0  9996
2 63238  97.4168 188.5006 0005055 258.4810 101.5859 15.22780803 33911
TEVEL2-8
1 63239U 25052AF  25296.65162992  .00019479  00000-0  83574-3 0  9991
2 63239  97.4166 188.4921 0005111 258.8207 101.2455 15.22751591 33913
HYDRA-W
1 63490U 25052BL  25296.44735640  .00062701  00000-0  19260-2 0  9999
2 63490  97.4102 189.8185 0005554 244.9909 115.0757 15.33472913 33991
HADES-ICM (SO-125)
1 63492U 25052BN  25296.65377166  .00050505  00000-0  16108-2 0  9996
2 63492  97.4108 189.8664 0006129 251.3658 108.6918 15.32328993 34011
Dragonfly
1 65729U 98067XH  25296.45445133  .00104344  00000-0  13650-2 0  9995
2 65729  51.6332  30.2543 0002075  39.3381 320.7762 15.57793207  5298
RSP-03
1 65732U 98067XL  25296.46175203  .00089688  00000-0  12097-2 0  9995
2 65732  51.6329  30.3028 0004457   6.7159 353.3892 15.57035678  5303
GHS-01
1 65733U 98067XM  25296.51379551  .00115291  00000-0  14761-2 0  9994
2 65733  51.6338  29.9014 0002407  33.0960 327.0183 15.58315864  5310
BOTAN
1 65942U 98067XP  25296.34540667  .00083663  00000-0  13281-2 0  9998
2 65942  51.6343  31.7737 0004026 315.8180  44.2488 15.52620110  2012
